Weather History for KTAN - June, 2013

Change the Weather History Date:

Saturday, June 1, 2013

  Actual Average Record
Temperature  
Mean Temperature 78 °F -  
Max Temperature 89 °F 75 °F 89 °F (1987)
Min Temperature 66 °F 52 °F 36 °F (1967)
Cooling Degree Days 12    
Growing Degree Days 28 (Base 50)    
Moisture  
Dew Point 64 °F    
Average Humidity 66    
Maximum Humidity 84    
Minimum Humidity 45    
Precipitation  
Precipitation 0.00 in - - ()
Sea Level Pressure  
Sea Level Pressure 29.95 in    
Wind  
Wind Speed 7 mph (SSW)    
Max Wind Speed 16 mph    
Max Gust Speed 28 mph    
Visibility 10 miles    
Events      
Averages and records for this station are not official NWS values.
T = Trace of Precipitation, MM = Missing Value Source: NWS Daily Summary

Daily Weather History Graph

Daily Weather History Graph

Search for Another Location

Airport or City:

Trip Planner

Search our weather history database for the weather conditions in past years. The results will help you decide how hot, cold, wet, or windy it might be!

Date:

Astronomy

Jun. 01, 2013 Rise Set
Actual Time 5:11 AM EDT 8:12 PM EDT
Civil Twilight 4:37 AM EDT 8:46 PM EDT
Nautical Twilight 3:55 AM EDT 9:29 PM EDT
Astronomical Twilight 3:04 AM EDT 10:19 PM EDT
Moon 1:11 AM EDT (6/1) 1:33 PM EDT (6/1)
Length of Visible Light 16h 08m
Length of Day
15h 01m
Last Quarter, 41% of the Moon is Illuminated
Jun 1
Last Quarter
Jun 8
New
Jun 16
First Quarter
Jun 23
Full
Jun 30
Last Quarter

Hourly Weather History & Observations

Time (EDT) Temp. Heat Index Dew Point Humidity Pressure Visibility Wind Dir Wind Speed Gust Speed Precip Events Conditions
12:52 AM 70.0 °F - 61.0 °F 73% 29.99 in 10.0 mi Variable 3.5 mph - N/A   Clear
1:52 AM 68.0 °F - 62.1 °F 81% 29.98 in 10.0 mi SSW 4.6 mph - N/A   Clear
2:52 AM 69.1 °F - 62.1 °F 78% 29.97 in 10.0 mi South 4.6 mph - N/A   Clear
3:52 AM 68.0 °F - 62.1 °F 81% 29.97 in 10.0 mi SSW 4.6 mph - N/A   Clear
4:52 AM 66.9 °F - 62.1 °F 84% 29.97 in 10.0 mi SSW 3.5 mph - N/A   Clear
5:52 AM 66.9 °F - 62.1 °F 84% 29.98 in 9.0 mi SSW 5.8 mph - N/A   Clear
6:52 AM 71.1 °F - 63.0 °F 75% 29.98 in 10.0 mi SW 4.6 mph - N/A   Clear
7:52 AM 75.0 °F - 64.0 °F 69% 29.99 in 10.0 mi SW 5.8 mph - N/A   Clear
8:52 AM 79.0 °F - 66.0 °F 64% 29.99 in 10.0 mi Variable 4.6 mph - N/A   Clear
9:52 AM 82.0 °F 84.5 °F 66.9 °F 60% 29.98 in 10.0 mi SW 9.2 mph - N/A   Clear
10:52 AM 86.0 °F 89.4 °F 68.0 °F 55% 29.98 in 10.0 mi SSW 6.9 mph - N/A   Clear
11:52 AM 87.1 °F 89.9 °F 66.9 °F 51% 29.97 in 10.0 mi WSW 9.2 mph 21.9 mph N/A   Clear
12:52 PM 89.1 °F 91.3 °F 66.0 °F 46% 29.95 in 10.0 mi SW 8.1 mph 19.6 mph N/A   Clear
1:52 PM 88.0 °F 89.3 °F 64.0 °F 45% 29.94 in 10.0 mi SW 16.1 mph 27.6 mph N/A   Clear
2:52 PM 87.1 °F 88.3 °F 64.0 °F 46% 29.93 in 10.0 mi SW 12.7 mph 26.5 mph N/A   Clear
3:52 PM 86.0 °F 86.8 °F 63.0 °F 46% 29.92 in 10.0 mi SW 12.7 mph 26.5 mph N/A   Clear
4:52 PM 84.0 °F 84.9 °F 63.0 °F 49% 29.92 in 10.0 mi SSW 15.0 mph 21.9 mph N/A   Clear
5:52 PM 82.0 °F 83.4 °F 64.0 °F 54% 29.91 in 10.0 mi SSW 11.5 mph - N/A   Clear
6:52 PM 80.1 °F 81.7 °F 64.0 °F 58% 29.90 in 10.0 mi SW 11.5 mph 20.7 mph N/A   Clear
7:52 PM 75.0 °F - 64.0 °F 69% 29.91 in 10.0 mi SSW 9.2 mph - N/A   Clear
8:52 PM 71.1 °F - 63.0 °F 75% 29.92 in 10.0 mi South 5.8 mph - N/A   Clear
9:52 PM 70.0 °F - 63.0 °F 78% 29.93 in 10.0 mi SSW 11.5 mph - N/A   Clear
10:52 PM 69.1 °F - 63.0 °F 81% 29.92 in 10.0 mi SSW 8.1 mph - N/A   Clear
11:52 PM 69.1 °F - 63.0 °F 81% 29.92 in 10.0 mi SSW 10.4 mph - N/A   Clear